This demonstration page uses our WeatherBlox Daily Observations layout. Learn more.

Left ArrowRight Arrow

40.92945, -100.16068

Hourly Observations for May 15, 2015

Temp ( °F °C ) Dew Point ( °F °C ) Humidity (%) Winds ( mph kmh ) Pressure ( in mb ) Visibility ( mi km ) Precip ( " mm )
12:15 am 00:15 Clear 63 17 58 14.7 86 86 S 12 19 29.85 1011 10 16.0934 N/A
12:35 am 00:35 Clear 63 17.2 59 14.8 86 86 S 13 20 29.85 1011 10 16.0934 N/A
12:55 am 00:55 Clear 63 17.1 58 14.7 86 86 SSE 8 13 29.85 1011 10 16.0934 N/A
1:15 am 01:15 Clear 63 17.1 59 15 88 88 SSE 10 17 29.85 1011 10 16.0934 N/A
1:35 am 01:35 Partly Cloudy 63 17.3 60 15.3 88 88 S 10 17 29.85 1011 10 16.0934 N/A
1:55 am 01:55 Partly Cloudy 63 17 59 15.2 89 89 S 8 13 29.85 1011 10 16.0934 N/A
2:15 am 02:15 Clear 63 17 60 15.5 91 91 SSE 8 13 29.85 1011 10 16.0934 N/A
2:35 am 02:35 Clear 62 16.5 59 15 91 91 SSE 6 9 29.83 1010 10 16.0934 N/A
2:55 am 02:55 Clear 62 16.5 59 15.2 92 92 ESE 3 6 29.83 1010 10 16.0934 N/A
3:15 am 03:15 Partly Cloudy 59 14.9 57 13.7 93 93 ENE 6 9 29.8 1009 10 16.0934 N/A
3:35 am 03:35 Partly Cloudy with Mist and Fog 57 14 55 13 94 94 NE 7 11 29.83 1010 5 8.0467 N/A
3:55 am 03:55 Clear 56 13.6 55 12.7 94 94 ENE 6 9 29.83 1010 7 11.26538 N/A
4:15 am 04:15 Clear with Mist and Fog 57 14.1 56 13.3 95 95 ENE 6 9 29.83 1010 5 8.0467 N/A
4:35 am 04:35 Partly Cloudy with Nearby Thunderstorms 59 15 58 14.2 95 95 E 7 11 29.85 1011 7 11.26538 N/A
4:55 am 04:55 Partly Cloudy 61 15.9 59 15.1 95 95 ESE 7 11 29.83 1010 10 16.0934 N/A
5:15 am 05:15 Mostly Cloudy with Light Rain 60 15.8 59 15 95 95 ESE 7 11 29.83 1010 10 16.0934 N/A
5:35 am 05:35 Cloudy with Light Rain 61 16 59 15.1 94 94 SSE 5 7 29.83 1010 7 11.26538 N/A
5:55 am 05:55 Cloudy with Nearby Thunderstorms 60 15.8 59 14.9 94 94 SE 5 7 29.83 1010 7 11.26538 0.04 1.016
6:15 am 06:15 Cloudy with Light Thunderstorms 60 15.8 58 14.7 93 93 E 9 15 29.8 1009 5 8.0467 0.05 1.27
6:35 am 06:35 Cloudy with Light Rain 60 15.8 59 14.8 94 94 E 6 9 29.83 1010 10 16.0934 0.06 1.524
6:55 am 06:55 Cloudy with Light Rain 61 16 59 14.9 93 93 SE 8 13 29.83 1010 10 16.0934 0.06 1.524
7:15 am 07:15 Cloudy with Nearby Thunderstorms 62 16.5 59 15.1 92 92 ESE 7 11 29.85 1011 10 16.0934 N/A
7:35 am 07:35 Cloudy with Rain 61 16.3 59 15 92 92 ESE 8 13 29.85 1011 7 11.26538 0.01 0.254
7:55 am 07:55 Cloudy with Light Rain 60 15.8 57 14.1 90 90 E 9 15 29.85 1011 4 6.43736 0.03 0.762
8:15 am 08:15 Mostly Cloudy with Light Rain 60 15.8 57 14.1 90 90 E 5 7 29.85 1011 10 16.0934 N/A
8:35 am 08:35 Cloudy 61 16 57 13.8 87 87 N N/A 29.88 1012 10 16.0934 N/A
8:55 am 08:55 Cloudy 61 16.2 56 13.4 84 84 SE 8 13 29.85 1011 10 16.0934 N/A
9:15 am 09:15 Cloudy with Light Rain 61 16.1 55 12.8 81 81 SE 13 20 29.85 1011 10 16.0934 0.01 0.254
9:35 am 09:35 Mostly Cloudy with Light Rain 62 16.4 56 13.2 82 82 E 8 13 29.85 1011 10 16.0934 0.01 0.254
9:55 am 09:55 Partly Cloudy 64 17.6 57 14 80 80 ESE 9 15 29.83 1010 10 16.0934 0.01 0.254
10:15 am 10:15 Sunny 65 18.6 58 14.3 76 76 ESE 10 17 29.8 1009 10 16.0934 N/A
10:35 am 10:35 Sunny 67 19.7 58 14.7 73 73 SE 8 13 29.8 1009 10 16.0934 N/A
10:55 am 10:55 Sunny 70 20.9 59 14.9 69 69 SE 13 20 29.8 1009 10 16.0934 N/A
11:15 am 11:15 Sunny 71 21.5 60 15.4 68 68 S 12 19 29.8 1009 10 16.0934 N/A
11:35 am 11:35 Sunny 70 21.3 59 15.1 68 68 SSE 9 15 29.8 1009 10 16.0934 N/A
11:55 am 11:55 Sunny 72 22.1 60 15.3 65 65 SSE 12 19 29.74 1007 10 16.0934 N/A
12:15 pm 12:15 Sunny 73 22.5 57 13.9 58 58 SE 9 15 29.74 1007 10 16.0934 N/A
12:35 pm 12:35 Sunny 74 23.1 59 14.8 60 60 SE 12 19 29.74 1007 10 16.0934 N/A
12:55 pm 12:55 Sunny 74 23.4 59 14.9 59 59 SSE 12 19 29.74 1007 10 16.0934 N/A
1:15 pm 13:15 Partly Cloudy 73 23 58 14.6 59 59 SSE 16 26 29.71 1006 10 16.0934 N/A
1:35 pm 13:35 Partly Cloudy 74 23.6 60 15.4 60 60 ESE 16 26 29.71 1006 10 16.0934 N/A
1:55 pm 13:55 Partly Cloudy 74 23.4 60 15.4 61 61 ESE 17 28 29.71 1006 10 16.0934 N/A
2:15 pm 14:15 Partly Cloudy 74 23.5 60 15.5 61 61 SE 15 24 29.71 1006 10 16.0934 N/A
2:35 pm 14:35 Partly Cloudy 74 23.2 59 15 60 60 ESE 17 28 29.68 1005 10 16.0934 N/A
2:55 pm 14:55 Partly Cloudy 75 24 60 15.5 59 59 ESE 18 30 29.65 1004 10 16.0934 N/A
3:15 pm 15:15 Partly Cloudy 75 24 59 15.2 58 58 SE 16 26 29.65 1004 10 16.0934 N/A
3:35 pm 15:35 Partly Cloudy 76 24.6 60 15.8 58 58 SE 18 30 29.62 1003 10 16.0934 N/A
3:55 pm 15:55 Partly Cloudy 76 24.6 60 15.4 57 57 SE 20 31 29.62 1003 10 16.0934 N/A
4:15 pm 16:15 Partly Cloudy 76 24.5 60 15.8 58 58 SE 16 26 29.59 1002 10 16.0934 N/A
4:35 pm 16:35 Partly Cloudy N/A N/A N/A SE 21 33 N/A 10 16.0934 N/A
4:55 pm 16:55 Partly Cloudy 75 24.1 59 15.1 57 57 SE 21 33 29.62 1003 10 16.0934 N/A
5:15 pm 17:15 Partly Cloudy 74 23.5 59 15.1 59 59 SE 22 35 29.62 1003 10 16.0934 N/A
5:35 pm 17:35 Partly Cloudy 75 24.1 58 14.3 54 54 SE 18 30 29.62 1003 10 16.0934 N/A
5:55 pm 17:55 Partly Cloudy 75 23.8 57 14 54 54 SE 22 35 29.62 1003 10 16.0934 N/A
6:15 pm 18:15 Partly Cloudy 75 24.1 59 14.8 56 56 SE 22 35 29.62 1003 10 16.0934 N/A
6:35 pm 18:35 Partly Cloudy 75 23.9 58 14.3 55 55 SE 22 35 29.62 1003 10 16.0934 N/A
6:55 pm 18:55 Sunny 73 22.6 58 14.6 61 61 SE 20 31 29.62 1003 10 16.0934 N/A
7:15 pm 19:15 Sunny 73 23 60 15.3 62 62 SE 14 22 29.62 1003 10 16.0934 N/A
7:35 pm 19:35 Sunny 72 22.4 60 15.3 64 64 SE 18 30 29.59 1002 10 16.0934 N/A
7:55 pm 19:55 Sunny 72 22.1 60 15.7 67 67 ESE 16 26 29.59 1002 10 16.0934 N/A
8:15 pm 20:15 Sunny 71 21.7 60 15.5 68 68 SE 16 26 29.59 1002 10 16.0934 N/A
8:35 pm 20:35 Sunny 70 21 60 15.5 71 71 SE 17 28 29.59 1002 10 16.0934 N/A
8:55 pm 20:55 Clear 69 20.5 60 15.5 73 73 SE 21 33 29.59 1002 10 16.0934 N/A
9:15 pm 21:15 Clear 69 20.4 60 15.7 75 75 ESE 16 26 29.62 1003 10 16.0934 N/A
9:35 pm 21:35 Partly Cloudy 69 20.3 61 16.3 78 78 SE 15 24 29.65 1004 10 16.0934 N/A
9:55 pm 21:55 Mostly Cloudy with Light Rain 67 19.4 63 17.1 87 87 ESE 17 28 29.62 1003 10 16.0934 0.05 1.27
10:15 pm 22:15 Cloudy 67 19.5 63 17.1 86 86 SE 16 26 29.62 1003 10 16.0934 N/A
10:35 pm 22:35 Mostly Cloudy 67 19.5 63 17.2 87 87 SE 16 26 29.62 1003 10 16.0934 N/A
10:55 pm 22:55 Mostly Cloudy 67 19.4 64 17.5 89 89 SE 16 26 29.65 1004 10 16.0934 N/A
11:15 pm 23:15 Partly Cloudy 66 19.1 63 17.3 89 89 SE 20 31 29.62 1003 10 16.0934 N/A
11:35 pm 23:35 Partly Cloudy 66 19 63 17.2 89 89 SE 20 31 29.62 1003 10 16.0934 N/A
11:55 pm 23:55 Partly Cloudy 66 19 63 17.3 90 90 SE 18 30 29.62 1003 10 16.0934 N/A

Powered by AerisWeather